Regional Weather Roundup
Issued by NWS

Home | Current Version | Previous Version | Text Only | Print | Product List | Glossary On
Versions: 1 2 3 4 5 6 7 8 9 10 11 12 13 14 15 16 17 18 19 20 21 22 23 24 25 26 27 28 29 30 31 32 33 34 35 36 37 38 39 40 41 42 43 44 45 46 47 48 49 50
000
ASUS46 KPQR 272210
RWROR

OREGON REGIONAL WEATHER ROUNDUP
NATIONAL WEATHER SERVICE PORTLAND OR
200 PM PST FRI FEB 27 2015

NOTE: "FAIR" INDICATES FEW OR NO CLOUDS BELOW 12,000 FEET WITH
NO SIGNIFICANT WEATHER AND/OR OBSTRUCTIONS TO VISIBILITY.

ORZ001>013-272300-
NORTHWEST OREGON


CITY           SKY/WX    TMP DP  RH WIND       PRES   REMARKS
ASTORIA        CLOUDY    50  47  89 NW3       29.70S
NEWPORT        LGT RAIN  50  46  87 W3        29.75F
PORTLAND       PTSUNNY   55  42  61 SW7       29.71F
VANCOUVER WA   CLOUDY    53  44  71 E5        29.70F
SCAPPOOSE      LGT RAIN  51  45  79 E3        29.70F
HILLSBORO      CLOUDY    53  41  63 SE7       29.70F
AURORA         CLOUDY    51  44  77 S12       29.71F
MCMINNVILLE    PTSUNNY   53  43  68 S6        29.71F
SALEM          CLOUDY    53  43  68 S9        29.70F
CORVALLIS      PTSUNNY   50  45  81 W5        29.73S
EUGENE         CLOUDY    51  44  77 SW12      29.74F
$$

ORZ021-028-272300-
SOUTHWEST OREGON


CITY           SKY/WX    TMP DP  RH WIND       PRES   REMARKS
NORTH BEND     CLOUDY    52  50  93 W13       29.79F
BROOKINGS      LGT RAIN  50  50 100 VRB7      29.83F FOG
ROSEBURG       LGT RAIN  51  44  77 NW3       29.77F
SEXTON SUMMIT  MIX PCPN  37  37 100 VRB3      29.71F VSB 1/4
MEDFORD        MOSUNNY   53  42  66 S7        29.74F
$$

ORZ014>016-041-272300-
COLUMBIA GORGE


CITY           SKY/WX    TMP DP  RH WIND       PRES   REMARKS
TROUTDALE      LGT RAIN  50  45  83 E7        29.71S
THE DALLES     LGT RAIN  47  41  80 E8        29.75S
$$

ORZ029>031-041-044-049-050-061>064-502-503-505>511-272300-
EASTERN OREGON


CITY           SKY/WX    TMP DP  RH WIND       PRES   REMARKS
REDMOND        PTSUNNY   48  32  53 W10       29.64F
BEND           PTSUNNY   39  36  87 SE3       29.65S
PRINEVILLE     PTSUNNY   43  34  70 CALM      29.65F
KLAMATH FALLS  PTSUNNY   43  30  60 W21G29    29.67F
LAKEVIEW       PTSUNNY   37  30  75 W16G26    29.67R WCI  28
HERMISTON      LGT RAIN  50  38  63 CALM      29.71F
PENDLETON      LGT RAIN  47  39  74 N10       29.68F
JOHN DAY       LGT RAIN  39  37  95 W9        29.66S WCI  32
MEACHAM        CLOUDY    41  34  76 CALM      29.64F
LA GRANDE      CLOUDY    46  30  53 S10       29.65F
BAKER CITY     CLOUDY    43  33  68 VRB3      29.66F
BURNS          CLOUDY    37  33  85 W3        29.65
ROME             N/A     38  34  85 NW5       29.63F WCI  34
ONTARIO        CLOUDY    52  32  46 SE8       29.68F
$$



USA.gov is the U.S. government's official web portal to all federal, state and local government web resources and services.